TimeMST,TemperatureF,Dew PointF,Humidity,Sea Level PressureIn,VisibilityMPH,Wind Direction,Wind SpeedMPH,Gust SpeedMPH,PrecipitationIn,Events,Conditions,WindDirDegrees,DateUTC
12:53 AM,19.9,12.0,71,30.35,10.0,SW,4.6,-,N/A,,Clear,230,2013-02-15 07:53:00
1:53 AM,21.0,12.9,71,30.35,10.0,SW,3.5,-,N/A,,Clear,230,2013-02-15 08:53:00
2:53 AM,23.0,12.9,65,30.36,10.0,Calm,Calm,-,N/A,,Clear,0,2013-02-15 09:53:00
3:53 AM,19.9,12.0,71,30.35,10.0,SSW,4.6,-,N/A,,Overcast,210,2013-02-15 10:53:00
4:53 AM,18.0,10.9,74,30.38,10.0,Calm,Calm,-,N/A,,Partly Cloudy,0,2013-02-15 11:53:00
5:53 AM,10.9,6.1,81,30.40,10.0,SSW,6.9,-,N/A,,Clear,210,2013-02-15 12:53:00
6:53 AM,10.9,7.0,84,30.41,10.0,SSW,6.9,-,N/A,,Mostly Cloudy,200,2013-02-15 13:53:00
7:53 AM,17.1,10.0,74,30.41,10.0,SW,3.5,-,N/A,,Mostly Cloudy,220,2013-02-15 14:53:00
8:53 AM,28.9,15.1,56,30.37,10.0,SW,3.5,-,N/A,,Clear,230,2013-02-15 15:53:00
9:53 AM,34.0,14.0,44,30.35,10.0,South,4.6,-,N/A,,Clear,170,2013-02-15 16:53:00
10:53 AM,39.0,15.1,38,30.32,10.0,WNW,10.4,-,N/A,,Clear,290,2013-02-15 17:53:00
11:53 AM,41.0,15.1,35,30.31,10.0,NW,6.9,17.3,N/A,,Partly Cloudy,320,2013-02-15 18:53:00
12:53 PM,43.0,14.0,31,30.29,10.0,NW,17.3,21.9,N/A,,Partly Cloudy,310,2013-02-15 19:53:00
1:53 PM,44.1,12.9,28,30.26,10.0,North,12.7,23.0,N/A,,Overcast,10,2013-02-15 20:53:00
2:53 PM,43.0,12.0,28,30.27,10.0,NNW,16.1,23.0,N/A,,Mostly Cloudy,330,2013-02-15 21:53:00
3:53 PM,41.0,14.0,33,30.30,10.0,North,29.9,34.5,N/A,,Overcast,10,2013-02-15 22:53:00
4:53 PM,37.9,15.1,39,30.33,10.0,North,18.4,27.6,N/A,,Scattered Clouds,10,2013-02-15 23:53:00
5:53 PM,34.0,12.0,40,30.39,10.0,North,10.4,-,N/A,,Partly Cloudy,360,2013-02-16 00:53:00
6:53 PM,30.0,12.9,49,30.42,10.0,NNW,3.5,-,N/A,,Clear,340,2013-02-16 01:53:00
7:53 PM,27.0,12.0,53,30.43,10.0,NNW,3.5,-,N/A,,Clear,340,2013-02-16 02:53:00
8:53 PM,26.1,12.0,55,30.42,10.0,Calm,Calm,-,N/A,,Clear,0,2013-02-16 03:53:00
9:53 PM,19.9,9.0,62,30.43,10.0,Calm,Calm,-,N/A,,Clear,0,2013-02-16 04:53:00
10:53 PM,18.0,8.1,65,30.41,10.0,SSW,8.1,-,N/A,,Mostly Cloudy,200,2013-02-16 05:53:00
11:53 PM,15.1,6.1,68,30.39,10.0,SSW,9.2,-,N/A,,Clear,200,2013-02-16 06:53:00